COSMOS 1727

Satellite information

Favourite Embed

Satellite Type and Status

PAYLOADIN ORBIT

Key statistics

Satellite COSMOS 1727 at a glance.

Uptime

14570

Days in orbit

Revolutions

≈ 13.7

Per day

Orbit

LEO

Low Earth Orbit

Inclination

82.9

Latest

Satellite identification and parameters

Extended collection of information and parameters for COSMOS 1727.

Object identification

Identified? True

Debris? False

Object name: COSMOS 1727

International designator: 1986-008A

Object number (NORAD): 16510

Object ID (CCSDS): 16510

Country: COMMONWEALTH OF INDEPENDENT STATES (CIS)

Current information (Y/N): Y

RCS size: LARGE

Orbital parameters

Period: 104.753 minutes

Inclination: 82.9482 deg

SMA: 7361.01 km

Apoapsis: 1011.183 km

Periapsis: 954.567 km

RAAN: 110.2725 deg

Eccentricy: 0.00384566

Argument of periapsis: 31.5418 deg

Mean anomaly: 339.9596 deg

Mean motion: 13.74664264 rev/day

Mean motion (dot): 0.000001 rev/day2

B* drag term: 0.000088830141 1/REarth

Two-line elements (TLE)

Creation date: Dec. 14, 2025, 3:07 a.m.

Reference frame: TEME

Reference center: EARTH

Epoch: Dec. 13, 2025, 2:59 p.m. UTC

TLE line 0: 0 COSMOS 1727

TLE line 1: 1 16510U 86008A 25347.62488458 .00000100 00000-0 88830-4 0 9993

TLE line 2: 2 16510 82.9482 110.2725 0038457 31.5418 339.9596 13.74664264 192

Live tracking on map

Real-time ground track for satellite COSMOS 1727.

In-orbit conjunctions

A list of the most updated potential collisions computed for object COSMOS 1727.

Target Orbit TCA Probability of collision Miss distance Type
FENGYUN 1C DEB SSO 2025-05-15 22:35:18 0.0006321643 451.0 (m) DEBRIS
FENGYUN 1C DEB SSO 2024-06-01 18:55:17 0.0001290915 314.0 (m) DEBRIS

Associated space launch

Civilian navigation satellite equivalent to the purely military Parus

COSMOS 1727 was lifted into orbit during the mission ‘Kosmos-3M | Tsikada 13’, on board a Kosmos-3M space rocket.

The launch took place on Jan. 23, 1986, 6:52 p.m. from 132/1 (132L).

For more information about the launch, click the button.

Launch to space Kosmos-3M | Tsikada 13
Kosmos-3M | Tsikada 13

Agency: N/A

Status: Launch Successful

Launch date: Jan. 23, 1986, 6:52 p.m. UTC

Rocket: Kosmos-3M

Launch pad: 132/1 (132L)

Location: Plesetsk Cosmodrome, Russian Federation

...

Latest news about this satellite

There are no fresh news available about this satellite. Check back as we update our databases every day.


Newsletter sign-up

Weekly statistics, charts and insights to help you stay on top of the space industry.